Weather History for Catania, Italy

Change the Weather History Date:

Monday, November 19, 2012

  Actual Average Record
Temperature  
Mean Temperature 60 °F -  
Max Temperature 64 °F 65 °F 73 °F (2006)
Min Temperature 55 °F 46 °F 41 °F (1997)
Degree Days  
Heating Degree Days 6    
Growing Degree Days 10 (Base 50)    
Moisture  
Dew Point 55 °F    
Average Humidity 86    
Maximum Humidity 94    
Minimum Humidity 68    
Precipitation  
Precipitation 0.00 in 0.10 in - ()
Sea Level Pressure  
Sea Level Pressure 29.81 in    
Wind  
Wind Speed 3 mph ()    
Max Wind Speed 10 mph    
Max Gust Speed -    
Visibility 5.6 miles    
Events Rain    
Averages and records for this station are not official NWS values.
T = Trace of Precipitation, MM = Missing Value Source: Averaged Metar Reports

Daily Weather History Graph

Daily Weather History Graph

Search for Another Location

Airport:

Trip Planner

Search our weather history database for the weather conditions in past years. The results will help you decide how hot, cold, wet, or windy it might be!

Date:

Astronomy

Nov. 19, 2012 Rise Set
Actual Time 6:43 AM CET 4:46 PM CET
Civil Twilight 6:15 AM CET 5:14 PM CET
Nautical Twilight 5:43 AM CET 5:46 PM CET
Astronomical Twilight 5:12 AM CET 6:17 PM CET
Moon 11:38 AM CET (11/19) 10:51 PM CET (11/19)
Length of Visible Light 10h 58m
Length of Day
10h 02m
Waxing Crescent, 38% of the Moon is Illuminated
Nov 19
Waxing Crescent
Nov 20
First Quarter
Nov 28
Full
Dec 6
Last Quarter
Dec 13
New

Hourly Weather History & Observations

Time (CET) Temp. Dew Point Humidity Pressure Visibility Wind Dir Wind Speed Gust Speed Precip Events Conditions
12:20 AM 59.0 °F 55.4 °F 88% 29.89 in 5.0 mi NNE 3.5 mph - N/A   Mostly Cloudy
12:50 AM 59.0 °F 55.4 °F 88% 29.86 in 5.0 mi Variable 2.3 mph - N/A   Light Drizzle
1:20 AM 59.0 °F 55.4 °F 88% 29.86 in 5.0 mi NNE 4.6 mph - N/A   Mostly Cloudy
1:50 AM 59.0 °F 55.4 °F 88% 29.86 in 5.0 mi Variable 2.3 mph - N/A   Light Drizzle
2:20 AM 59.0 °F 55.4 °F 88% 29.86 in 5.0 mi Calm Calm - N/A   Mostly Cloudy
2:50 AM 59.0 °F 55.4 °F 88% 29.86 in 5.0 mi North 2.3 mph - N/A   Mostly Cloudy
3:20 AM 59.0 °F 55.4 °F 88% 29.86 in 5.0 mi East 4.6 mph - N/A   Drizzle
3:50 AM 59.0 °F 55.4 °F 88% 29.83 in 5.0 mi East 3.5 mph - N/A   Drizzle
4:20 AM 57.2 °F 55.4 °F 94% 29.83 in 5.0 mi Variable 2.3 mph - N/A   Drizzle
4:50 AM 57.2 °F 55.4 °F 94% 29.83 in 5.0 mi NNE 2.3 mph - N/A   Drizzle
5:20 AM 57.2 °F 55.4 °F 94% 29.83 in 4.3 mi North 3.5 mph - N/A Rain Rain
5:50 AM 57.2 °F 55.4 °F 94% 29.83 in 5.0 mi North 3.5 mph - N/A Rain Light Rain
6:20 AM 57.2 °F 53.6 °F 88% 29.83 in 5.0 mi Variable 2.3 mph - N/A Rain Light Rain
6:50 AM 57.2 °F 53.6 °F 88% 29.83 in 5.0 mi WNW 2.3 mph - N/A   Light Drizzle
7:20 AM 57.2 °F 55.4 °F 94% 29.83 in 5.0 mi NW 3.5 mph - N/A   Light Drizzle
7:50 AM 59.0 °F 55.4 °F 88% 29.83 in 5.0 mi NW 3.5 mph - N/A   Light Drizzle
8:20 AM 59.0 °F 55.4 °F 88% 29.83 in 5.0 mi West 3.5 mph - N/A   Light Drizzle
8:50 AM 59.0 °F 55.4 °F 88% 29.83 in 5.0 mi West 4.6 mph - N/A   Mostly Cloudy
9:20 AM 59.0 °F 55.4 °F 88% 29.83 in 5.0 mi WSW 3.5 mph - N/A Rain Light Rain
9:50 AM 59.0 °F 55.4 °F 88% 29.83 in 4.3 mi SW 4.6 mph - N/A Rain Light Rain
10:20 AM 59.0 °F 55.4 °F 88% 29.83 in 4.3 mi West 8.1 mph - N/A Rain Light Rain
10:50 AM 59.0 °F 55.4 °F 88% 29.83 in 5.0 mi West 6.9 mph - N/A Rain Light Rain
11:20 AM 60.8 °F 57.2 °F 88% 29.80 in 5.0 mi Variable 2.3 mph - N/A Rain Light Rain
11:50 AM 59.0 °F 57.2 °F 94% 29.80 in 5.0 mi SW 5.8 mph - N/A Rain Light Rain
12:20 PM 60.8 °F 57.2 °F 88% 29.77 in 6.2 mi Calm Calm - N/A   Mostly Cloudy
12:50 PM 60.8 °F 57.2 °F 88% 29.77 in 6.2 mi Variable 2.3 mph - N/A   Mostly Cloudy
1:20 PM 62.6 °F 55.4 °F 77% 29.77 in 6.2 mi Variable 2.3 mph - N/A   Mostly Cloudy
1:50 PM 62.6 °F 57.2 °F 82% 29.77 in 6.2 mi SW 6.9 mph - N/A   Mostly Cloudy
2:20 PM 62.6 °F 57.2 °F 82% 29.77 in 6.2 mi WSW 6.9 mph - N/A   Mostly Cloudy
2:50 PM 62.6 °F 57.2 °F 82% 29.77 in 6.2 mi WSW 8.1 mph - N/A   Mostly Cloudy
3:20 PM 64.4 °F 55.4 °F 73% 29.77 in 6.2 mi WSW 4.6 mph - N/A   Mostly Cloudy
3:50 PM 64.4 °F 53.6 °F 68% 29.77 in 6.2 mi WSW 6.9 mph - N/A   Scattered Clouds
4:20 PM 62.6 °F 53.6 °F 72% 29.77 in 6.2 mi WSW 4.6 mph - N/A   Scattered Clouds
4:50 PM 60.8 °F 53.6 °F 77% 29.77 in 6.2 mi WSW 3.5 mph - N/A   Scattered Clouds
5:20 PM 60.8 °F 53.6 °F 77% 29.77 in 6.2 mi Variable 1.2 mph - N/A   Scattered Clouds
5:50 PM 60.8 °F 55.4 °F 82% 29.77 in 6.2 mi WSW 3.5 mph - N/A   Scattered Clouds
6:20 PM 59.0 °F 55.4 °F 88% 29.80 in 6.2 mi SW 2.3 mph - N/A   Scattered Clouds
6:50 PM 59.0 °F 55.4 °F 88% 29.80 in 6.2 mi SW 3.5 mph - N/A   Scattered Clouds
7:20 PM 59.0 °F 53.6 °F 82% 29.80 in 6.2 mi WSW 4.6 mph - N/A   Partly Cloudy
7:50 PM 57.2 °F 53.6 °F 88% 29.80 in 6.2 mi West 2.3 mph - N/A   Partly Cloudy
8:20 PM 57.2 °F 53.6 °F 88% 29.80 in 6.2 mi WNW 3.5 mph - N/A   Scattered Clouds
8:50 PM 57.2 °F 53.6 °F 88% 29.80 in 6.2 mi West 3.5 mph - N/A   Scattered Clouds
9:20 PM 55.4 °F 51.8 °F 88% 29.80 in 6.2 mi West 4.6 mph - N/A   Partly Cloudy
9:50 PM 55.4 °F 51.8 °F 88% 29.80 in 6.2 mi WSW 8.1 mph - N/A   Partly Cloudy
10:20 PM 55.4 °F 50.0 °F 82% 29.80 in 6.2 mi WSW 9.2 mph - N/A   Partly Cloudy
10:50 PM 55.4 °F 50.0 °F 82% 29.80 in 6.2 mi West 6.9 mph - N/A   Partly Cloudy
11:20 PM 55.4 °F 50.0 °F 82% 29.80 in 6.2 mi West 8.1 mph - N/A   Partly Cloudy
11:50 PM 55.4 °F 50.0 °F 82% 29.80 in 6.2 mi West 10.4 mph - N/A   Partly Cloudy